"Period start","avg(HW err(1)/warn(2) (#))","avg(Visibility (m))","avg(Weather code (#))","avg(Precip intensity (mm/h))","min(HW err(1)/warn(2) (#))","max(HW err(1)/warn(2) (#))","std(HW err(1)/warn(2) (#))","med(HW err(1)/warn(2) (#))","min(Visibility (m))","max(Visibility (m))","std(Visibility (m))","med(Visibility (m))","min(Weather code (#))","max(Weather code (#))","std(Weather code (#))","med(Weather code (#))","min(Precip intensity (mm/h))","max(Precip intensity (mm/h))","std(Precip intensity (mm/h))","med(Precip intensity (mm/h))"
2014-06-25 00:00:00,2,44881,0,0.00,2,2,0,2,34141,50000,4923,46065,0,0,0,0,0.00,0.00,0.00,0.00
2014-06-25 00:10:00,2,40483,0,0.00,2,2,0,2,31420,50000,4643,40729,0,0,0,0,0.00,0.00,0.00,0.00
2014-06-25 00:20:00,2,46748,0,0.00,2,2,0,2,35178,50000,4222,47878,0,0,0,0,0.00,0.00,0.00,0.00
2014-06-25 00:30:00,2,48623,0,0.00,2,2,0,2,42954,50000,2533,50000,0,0,0,0,0.00,0.00,0.00,0.00
2014-06-25 00:40:00,2,44132,0,0.00,2,2,0,2,37101,50000,4085,44504,0,0,0,0,0.00,0.00,0.00,0.00
2014-06-25 00:50:00,2,47462,0,0.00,2,2,0,2,40535,50000,3122,48607,0,0,0,0,0.00,0.00,0.00,0.00
2014-06-25 01:00:00,2,45626,0,0.00,2,2,0,2,35321,50000,4576,47134,0,0,0,0,0.00,0.00,0.00,0.00
2014-06-25 01:10:00,2,47308,0,0.00,2,2,0,2,35127,50000,5421,50000,0,0,0,0,0.00,0.00,0.00,0.00
2014-06-25 01:20:00,2,44457,0,0.00,2,2,0,2,33136,50000,5356,45142,0,0,0,0,0.00,0.00,0.00,0.00
2014-06-25 01:30:00,2,44722,0,0.00,2,2,0,2,35540,50000,4683,45880,0,0,0,0,0.00,0.00,0.00,0.00
2014-06-25 01:40:00,2,45313,0,0.00,2,2,0,2,33758,50000,5066,46094,0,0,0,0,0.00,0.00,0.00,0.00
2014-06-25 01:50:00,2,47745,0,0.00,2,2,0,2,41481,50000,2814,48702,0,0,0,0,0.00,0.00,0.00,0.00
2014-06-25 02:00:00,2,43214,0,0.00,2,2,0,2,31426,50000,7380,45674,0,0,0,0,0.00,0.00,0.00,0.00
2014-06-25 02:10:00,2,49848,0,0.00,2,2,0,2,48876,50000,333,50000,0,0,0,0,0.00,0.00,0.00,0.00
2014-06-25 02:20:00,2,45166,0,0.00,2,2,0,2,34952,50000,5966,49590,0,0,0,0,0.00,0.00,0.00,0.00
2014-06-25 02:30:00,2,46837,0,0.00,2,2,0,2,39278,50000,3697,48802,0,0,0,0,0.00,0.00,0.00,0.00
2014-06-25 02:40:00,2,47208,0,0.00,2,2,0,2,43247,50000,2951,48051,0,0,0,0,0.00,0.00,0.00,0.00
2014-06-25 02:50:00,2,47265,0,0.00,2,2,0,2,41524,50000,3038,48352,0,0,0,0,0.00,0.00,0.00,0.00
2014-06-25 03:00:00,2,47313,0,0.00,2,2,0,2,41939,50000,3096,48768,0,0,0,0,0.00,0.00,0.00,0.00
2014-06-25 03:10:00,2,44227,0,0.00,2,2,0,2,28836,50000,6124,44758,0,0,0,0,0.00,0.00,0.00,0.00
2014-06-25 03:20:00,2,44475,0,0.00,2,2,0,2,33792,50000,5397,45216,0,0,0,0,0.00,0.00,0.00,0.00
2014-06-25 03:30:00,2,47423,0,0.00,2,2,0,2,38576,50000,3458,48944,0,0,0,0,0.00,0.00,0.00,0.00
2014-06-25 03:40:00,2,44131,0,0.00,2,2,0,2,36982,50000,3687,43895,0,0,0,0,0.00,0.00,0.00,0.00
2014-06-25 03:50:00,2,46223,0,0.00,2,2,0,2,39345,50000,3936,47000,0,0,0,0,0.00,0.00,0.00,0.00
2014-06-25 04:00:00,2,44614,0,0.00,2,2,0,2,38678,50000,4348,44092,0,0,0,0,0.00,0.00,0.00,0.00
2014-06-25 04:10:00,2,45526,0,0.00,2,2,0,2,33148,50000,6730,49776,0,0,0,0,0.00,0.00,0.00,0.00
2014-06-25 04:20:00,2,45777,0,0.00,2,2,0,2,38359,50000,3906,46256,0,0,0,0,0.00,0.00,0.00,0.00
2014-06-25 04:30:00,2,49172,0,0.00,2,2,0,2,42532,50000,2227,50000,0,0,0,0,0.00,0.00,0.00,0.00
2014-06-25 04:40:00,2,46924,0,0.00,2,2,0,2,39538,50000,4089,49949,0,0,0,0,0.00,0.00,0.00,0.00
2014-06-25 04:50:00,2,49998,0,0.00,2,2,0,2,49978,50000,7,50000,0,0,0,0,0.00,0.00,0.00,0.00
2014-06-25 05:00:00,2,48549,0,0.00,2,2,0,2,43045,50000,2611,49915,0,0,0,0,0.00,0.00,0.00,0.00
2014-06-25 05:10:00,2,45610,0,0.00,2,2,0,2,31697,50000,6263,49490,0,0,0,0,0.00,0.00,0.00,0.00
2014-06-25 05:20:00,2,46655,0,0.00,2,2,0,2,37955,50000,4218,48702,0,0,0,0,0.00,0.00,0.00,0.00
2014-06-25 05:30:00,2,48349,0,0.00,2,2,0,2,41415,50000,2740,49631,0,0,0,0,0.00,0.00,0.00,0.00
2014-06-25 05:40:00,2,48417,0,0.00,2,2,0,2,40753,50000,2949,50000,0,0,0,0,0.00,0.00,0.00,0.00
2014-06-25 05:50:00,2,47071,0,0.00,2,2,0,2,40686,50000,3561,49417,0,0,0,0,0.00,0.00,0.00,0.00
2014-06-25 06:00:00,2,48663,0,0.00,2,2,0,2,41041,50000,2794,50000,0,0,0,0,0.00,0.00,0.00,0.00
2014-06-25 06:10:00,2,49975,0,0.00,2,2,0,2,49747,50000,76,50000,0,0,0,0,0.00,0.00,0.00,0.00
2014-06-25 06:20:00,2,49280,0,0.00,2,2,0,2,42940,50000,2114,50000,0,0,0,0,0.00,0.00,0.00,0.00
2014-06-25 06:30:00,2,49483,0,0.00,2,2,0,2,47164,50000,1041,50000,0,0,0,0,0.00,0.00,0.00,0.00
2014-06-25 06:40:00,2,48157,0,0.00,2,2,0,2,44132,50000,2136,48866,0,0,0,0,0.00,0.00,0.00,0.00
2014-06-25 06:50:00,2,49918,0,0.00,2,2,0,2,49179,50000,246,50000,0,0,0,0,0.00,0.00,0.00,0.00
2014-06-25 07:00:00,2,48414,0,0.00,2,2,0,2,40576,50000,3003,50000,0,0,0,0,0.00,0.00,0.00,0.00
2014-06-25 07:10:00,2,49729,0,0.00,2,2,0,2,48989,50000,421,50000,0,0,0,0,0.00,0.00,0.00,0.00
2014-06-25 07:20:00,2,49671,0,0.00,2,2,0,2,47042,50000,882,50000,0,0,0,0,0.00,0.00,0.00,0.00
2014-06-25 07:30:00,2,48680,0,0.00,2,2,0,2,40657,50000,2789,50000,0,0,0,0,0.00,0.00,0.00,0.00
2014-06-25 07:40:00,2,49443,0,0.00,2,2,0,2,47192,50000,1114,50000,0,0,0,0,0.00,0.00,0.00,0.00
2014-06-25 07:50:00,2,49368,0,0.00,2,2,0,2,45892,50000,1245,50000,0,0,0,0,0.00,0.00,0.00,0.00
2014-06-25 08:00:00,2,49364,0,0.00,2,2,0,2,46310,50000,1292,50000,0,0,0,0,0.00,0.00,0.00,0.00
2014-06-25 08:10:00,2,48960,0,0.00,2,2,0,2,44301,50000,2078,50000,0,0,0,0,0.00,0.00,0.00,0.00
2014-06-25 08:20:00,2,47299,0,0.00,2,2,0,2,38528,50000,3802,49571,0,0,0,0,0.00,0.00,0.00,0.00
2014-06-25 08:30:00,2,48982,0,0.00,2,2,0,2,46018,50000,1492,50000,0,0,0,0,0.00,0.00,0.00,0.00
2014-06-25 08:40:00,2,49438,0,0.00,2,2,0,2,47078,50000,1021,50000,0,0,0,0,0.00,0.00,0.00,0.00
2014-06-25 08:50:00,2,49461,0,0.00,2,2,0,2,46541,50000,1131,50000,0,0,0,0,0.00,0.00,0.00,0.00
2014-06-25 09:00:00,2,49548,0,0.00,2,2,0,2,47321,50000,832,50000,0,0,0,0,0.00,0.00,0.00,0.00
2014-06-25 09:10:00,2,50000,0,0.00,2,2,0,2,50000,50000,0,50000,0,0,0,0,0.00,0.00,0.00,0.00
2014-06-25 09:20:00,2,48895,0,0.00,2,2,0,2,39243,50000,3219,50000,0,0,0,0,0.00,0.00,0.00,0.00
2014-06-25 09:30:00,2,48401,0,0.00,2,2,0,2,43056,50000,2430,50000,0,0,0,0,0.00,0.00,0.00,0.00
2014-06-25 09:40:00,2,50000,0,0.00,2,2,0,2,50000,50000,0,50000,0,0,0,0,0.00,0.00,0.00,0.00
2014-06-25 09:50:00,2,49738,0,0.00,2,2,0,2,47517,50000,741,50000,0,0,0,0,0.00,0.00,0.00,0.00
2014-06-25 10:00:00,2,50000,0,0.00,2,2,0,2,50000,50000,0,50000,0,0,0,0,0.00,0.00,0.00,0.00
2014-06-25 10:10:00,2,49250,0,0.00,2,2,0,2,44342,50000,1681,50000,0,0,0,0,0.00,0.00,0.00,0.00
2014-06-25 10:20:00,2,49924,0,0.00,2,2,0,2,49235,50000,230,50000,0,0,0,0,0.00,0.00,0.00,0.00
2014-06-25 10:30:00,2,49917,0,0.00,2,2,0,2,49172,50000,248,50000,0,0,0,0,0.00,0.00,0.00,0.00
2014-06-25 10:40:00,2,49882,0,0.00,2,2,0,2,48822,50000,353,50000,0,0,0,0,0.00,0.00,0.00,0.00
2014-06-25 10:50:00,2,50000,0,0.00,2,2,0,2,50000,50000,0,50000,0,0,0,0,0.00,0.00,0.00,0.00
2014-06-25 11:00:00,2,50000,0,0.00,2,2,0,2,50000,50000,0,50000,0,0,0,0,0.00,0.00,0.00,0.00
2014-06-25 11:10:00,2,50000,0,0.00,2,2,0,2,50000,50000,0,50000,0,0,0,0,0.00,0.00,0.00,0.00
2014-06-25 11:20:00,2,50000,0,0.00,2,2,0,2,50000,50000,0,50000,0,0,0,0,0.00,0.00,0.00,0.00
2014-06-25 11:30:00,2,49932,0,0.00,2,2,0,2,49316,50000,205,50000,0,0,0,0,0.00,0.00,0.00,0.00
2014-06-25 11:40:00,2,50000,0,0.00,2,2,0,2,50000,50000,0,50000,0,0,0,0,0.00,0.00,0.00,0.00
2014-06-25 11:50:00,2,50000,0,0.00,2,2,0,2,50000,50000,0,50000,0,0,0,0,0.00,0.00,0.00,0.00
2014-06-25 12:00:00,2,49973,0,0.00,2,2,0,2,49729,50000,81,50000,0,0,0,0,0.00,0.00,0.00,0.00
2014-06-25 12:10:00,2,50000,0,0.00,2,2,0,2,50000,50000,0,50000,0,0,0,0,0.00,0.00,0.00,0.00
2014-06-25 12:20:00,2,50000,0,0.00,2,2,0,2,50000,50000,0,50000,0,0,0,0,0.00,0.00,0.00,0.00
2014-06-25 12:30:00,2,50000,0,0.00,2,2,0,2,50000,50000,0,50000,0,0,0,0,0.00,0.00,0.00,0.00
2014-06-25 12:40:00,2,49647,0,0.00,2,2,0,2,47877,50000,725,50000,0,0,0,0,0.00,0.00,0.00,0.00
2014-06-25 12:50:00,2,50000,0,0.00,2,2,0,2,50000,50000,0,50000,0,0,0,0,0.00,0.00,0.00,0.00
2014-06-25 13:00:00,2,49988,0,0.00,2,2,0,2,49880,50000,36,50000,0,0,0,0,0.00,0.00,0.00,0.00
2014-06-25 13:10:00,2,50000,0,0.00,2,2,0,2,50000,50000,0,50000,0,0,0,0,0.00,0.00,0.00,0.00
2014-06-25 13:20:00,2,49996,0,0.00,2,2,0,2,49965,50000,10,50000,0,0,0,0,0.00,0.00,0.00,0.00
2014-06-25 13:30:00,2,50000,0,0.00,2,2,0,2,50000,50000,0,50000,0,0,0,0,0.00,0.00,0.00,0.00
2014-06-25 13:40:00,2,50000,0,0.00,2,2,0,2,50000,50000,0,50000,0,0,0,0,0.00,0.00,0.00,0.00
2014-06-25 13:50:00,2,50000,0,0.00,2,2,0,2,50000,50000,0,50000,0,0,0,0,0.00,0.00,0.00,0.00
2014-06-25 14:00:00,2,39580,0,0.00,2,2,0,2,10245,50000,14997,47128,0,0,0,0,0.00,0.00,0.00,0.00
2014-06-25 14:10:00,2,10775,0,0.00,2,2,0,2,5136,15059,3197,11056,0,0,0,0,0.00,0.00,0.00,0.00
2014-06-25 14:20:00,2,4992,8,0.00,2,2,0,2,3004,10412,2183,4300,0,10,4,10,0.00,0.00,0.00,0.00
2014-06-25 14:30:00,2,1036,17,0.00,2,2,0,2,520,3416,847,690,10,34,10,10,0.00,0.00,0.00,0.00
2014-06-25 14:40:00,2,819,34,0.00,2,2,0,2,677,1072,119,772,34,34,0,34,0.00,0.00,0.00,0.00
2014-06-25 14:50:00,2,10143,30,0.00,2,2,0,2,988,27507,9049,6031,20,34,6,34,0.00,0.00,0.00,0.00
2014-06-25 15:00:00,2,46879,20,0.00,2,2,0,2,31441,50000,5815,50000,20,20,0,20,0.00,0.00,0.00,0.00
2014-06-25 15:10:00,0,50000,20,0.00,0,0,0,0,50000,50000,0,50000,20,20,0,20,0.00,0.00,0.00,0.00
2014-06-25 15:20:00,0,50000,20,0.00,0,0,0,0,50000,50000,0,50000,20,20,0,20,0.00,0.00,0.00,0.00
2014-06-25 15:30:00,0,50000,20,0.00,0,0,0,0,50000,50000,0,50000,20,20,0,20,0.00,0.00,0.00,0.00
2014-06-25 15:40:00,0,50000,20,0.00,0,0,0,0,50000,50000,0,50000,20,20,0,20,0.00,0.00,0.00,0.00
2014-06-25 15:50:00,0,50000,14,0.00,0,0,0,0,50000,50000,0,50000,0,20,9,20,0.00,0.00,0.00,0.00
2014-06-25 16:00:00,0,50000,0,0.00,0,0,0,0,50000,50000,0,50000,0,0,0,0,0.00,0.00,0.00,0.00
2014-06-25 16:10:00,0,50000,0,0.00,0,0,0,0,50000,50000,0,50000,0,0,0,0,0.00,0.00,0.00,0.00
2014-06-25 16:20:00,0,50000,0,0.00,0,0,0,0,50000,50000,0,50000,0,0,0,0,0.00,0.00,0.00,0.00
2014-06-25 16:30:00,0,50000,0,0.00,0,0,0,0,50000,50000,0,50000,0,0,0,0,0.00,0.00,0.00,0.00
2014-06-25 16:40:00,0,50000,0,0.00,0,0,0,0,50000,50000,0,50000,0,0,0,0,0.00,0.00,0.00,0.00
2014-06-25 16:50:00,0,50000,0,0.00,0,0,0,0,50000,50000,0,50000,0,0,0,0,0.00,0.00,0.00,0.00
2014-06-25 17:00:00,0,50000,0,0.00,0,0,0,0,50000,50000,0,50000,0,0,0,0,0.00,0.00,0.00,0.00
2014-06-25 17:10:00,0,50000,0,0.00,0,0,0,0,50000,50000,0,50000,0,0,0,0,0.00,0.00,0.00,0.00
2014-06-25 17:20:00,0,50000,0,0.00,0,0,0,0,50000,50000,0,50000,0,0,0,0,0.00,0.00,0.00,0.00
2014-06-25 17:30:00,0,50000,0,0.00,0,0,0,0,50000,50000,0,50000,0,0,0,0,0.00,0.00,0.00,0.00
2014-06-25 17:40:00,0,50000,0,0.00,0,0,0,0,50000,50000,0,50000,0,0,0,0,0.00,0.00,0.00,0.00
2014-06-25 17:50:00,0,50000,0,0.00,0,0,0,0,50000,50000,0,50000,0,0,0,0,0.00,0.00,0.00,0.00
2014-06-25 18:00:00,0,50000,0,0.00,0,0,0,0,50000,50000,0,50000,0,0,0,0,0.00,0.00,0.00,0.00
2014-06-25 18:10:00,0,49952,0,0.00,0,0,0,0,49519,50000,144,50000,0,0,0,0,0.00,0.00,0.00,0.00
2014-06-25 18:20:00,0,45255,0,0.00,0,0,0,0,36794,50000,4074,45726,0,0,0,0,0.00,0.00,0.00,0.00
2014-06-25 18:30:00,0,49973,0,0.00,0,0,0,0,49729,50000,81,50000,0,0,0,0,0.00,0.00,0.00,0.00
2014-06-25 18:40:00,0,39362,0,0.00,0,0,0,0,19920,50000,11122,42098,0,0,0,0,0.00,0.00,0.00,0.00
2014-06-25 18:50:00,0,50000,0,0.00,0,0,0,0,49996,50000,1,50000,0,0,0,0,0.00,0.00,0.00,0.00
2014-06-25 19:00:00,0,40397,0,0.00,0,0,0,0,22236,50000,10806,46741,0,0,0,0,0.00,0.00,0.00,0.00
2014-06-25 19:10:00,0,31296,0,0.00,0,0,0,0,20102,46436,8202,30486,0,0,0,0,0.00,0.00,0.00,0.00
2014-06-25 19:20:00,0,43287,0,0.00,0,0,0,0,30196,50000,6155,43356,0,0,0,0,0.00,0.00,0.00,0.00
2014-06-25 19:30:00,0,48996,0,0.00,0,0,0,0,43322,50000,1983,50000,0,0,0,0,0.00,0.00,0.00,0.00
2014-06-25 19:40:00,1,49912,0,0.00,0,2,1,1,49117,50000,265,50000,0,0,0,0,0.00,0.00,0.00,0.00
2014-06-25 19:50:00,2,31625,0,0.00,2,2,0,2,20578,50000,9512,28344,0,0,0,0,0.00,0.00,0.00,0.00
2014-06-25 20:00:00,2,30312,0,0.00,2,2,0,2,13019,42098,8521,31105,0,0,0,0,0.00,0.00,0.00,0.00
2014-06-25 20:10:00,2,23996,0,0.00,2,2,0,2,13976,36417,7589,24294,0,0,0,0,0.00,0.00,0.00,0.00
2014-06-25 20:20:00,2,36637,0,0.00,2,2,0,2,7926,50000,14875,42035,0,0,0,0,0.00,0.00,0.00,0.00
2014-06-25 20:30:00,2,47112,0,0.00,2,2,0,2,37747,50000,4528,49928,0,0,0,0,0.00,0.00,0.00,0.00
2014-06-25 20:40:00,2,50000,0,0.00,2,2,0,2,50000,50000,0,50000,0,0,0,0,0.00,0.00,0.00,0.00
2014-06-25 20:50:00,2,50000,0,0.00,2,2,0,2,50000,50000,0,50000,0,0,0,0,0.00,0.00,0.00,0.00
2014-06-25 21:00:00,2,50000,0,0.00,2,2,0,2,50000,50000,0,50000,0,0,0,0,0.00,0.00,0.00,0.00
2014-06-25 21:10:00,2,49985,0,0.00,2,2,0,2,49849,50000,45,50000,0,0,0,0,0.00,0.00,0.00,0.00
2014-06-25 21:20:00,2,49970,0,0.00,2,2,0,2,49703,50000,89,50000,0,0,0,0,0.00,0.00,0.00,0.00
2014-06-25 21:30:00,2,49712,0,0.00,2,2,0,2,48640,50000,466,50000,0,0,0,0,0.00,0.00,0.00,0.00
2014-06-25 21:40:00,2,49838,0,0.00,2,2,0,2,48882,50000,352,50000,0,0,0,0,0.00,0.00,0.00,0.00
2014-06-25 21:50:00,2,49708,0,0.00,2,2,0,2,47076,50000,877,50000,0,0,0,0,0.00,0.00,0.00,0.00
2014-06-25 22:00:00,2,49888,0,0.00,2,2,0,2,48963,50000,309,50000,0,0,0,0,0.00,0.00,0.00,0.00
2014-06-25 22:10:00,2,49846,0,0.00,2,2,0,2,48460,50000,462,50000,0,0,0,0,0.00,0.00,0.00,0.00
2014-06-25 22:20:00,2,49047,0,0.00,2,2,0,2,44812,50000,1690,50000,0,0,0,0,0.00,0.00,0.00,0.00
2014-06-25 22:30:00,2,49957,0,0.00,2,2,0,2,49573,50000,128,50000,0,0,0,0,0.00,0.00,0.00,0.00
2014-06-25 22:40:00,2,49966,0,0.00,2,2,0,2,49661,50000,102,50000,0,0,0,0,0.00,0.00,0.00,0.00
2014-06-25 22:50:00,2,50000,0,0.00,2,2,0,2,50000,50000,0,50000,0,0,0,0,0.00,0.00,0.00,0.00
2014-06-25 23:00:00,2,50000,0,0.00,2,2,0,2,50000,50000,0,50000,0,0,0,0,0.00,0.00,0.00,0.00
2014-06-25 23:10:00,2,49869,0,0.00,2,2,0,2,48687,50000,394,50000,0,0,0,0,0.00,0.00,0.00,0.00
2014-06-25 23:20:00,2,48798,0,0.00,2,2,0,2,45881,50000,1396,49372,0,0,0,0,0.00,0.00,0.00,0.00
2014-06-25 23:30:00,2,49207,0,0.00,2,2,0,2,45135,50000,1417,49806,0,0,0,0,0.00,0.00,0.00,0.00
2014-06-25 23:40:00,2,49473,0,0.00,2,2,0,2,47366,50000,879,50000,0,0,0,0,0.00,0.00,0.00,0.00
2014-06-25 23:50:00,2,48138,0,0.00,2,2,0,2,45370,50000,1811,48358,0,0,0,0,0.00,0.00,0.00,0.00
